Date String (YYYY-MM-DD hh:mm:ss) UTC,Instrument flags,Ambient pressure (hPa),Sample flow (lpm),Bypass flow (lpm),Sample temperature (°C),Ambient temperature (°C),ASC tube jacket temperature (°C),LED temperature (°C),Box temperature (°C),Sample RH (%),Span deviation,Mass concentration (μg/m³),Mass concentration (μg/m³),Mass concentration (μg/m³)
DateTimeUTC,F1_M11,P_M11,Q1_M11,Q2_M11,T1_M11,T2_M11,T3_M11,T4_M11,T5_M11,U1_M11,ZSPAN_M11,X0_M11,X2_M11,X1_M11
2022-10-21 17:00:00,,0820.5,5.00,0.00,29.5,28.2,00.0,38.4,31.3,06.8,0001.5,0015.34,0007.85,0007.21
2022-10-21 17:01:00,,0820.5,5.00,0.00,29.5,28.2,00.0,38.4,31.3,06.9,0002.1,0015.15,0007.87,0007.26
2022-10-21 17:02:00,,0820.3,5.01,0.00,29.5,28.2,00.0,38.4,31.4,07.0,0001.5,0014.62,0007.83,0007.32
2022-10-21 17:03:00,,0820.2,4.98,0.00,29.5,28.2,00.0,38.4,31.4,06.8,0001.9,0014.60,0007.91,0007.40
2022-10-21 17:04:00,,0820.2,5.01,0.00,29.5,28.3,00.0,38.4,31.4,06.6,0002.2,0014.23,0008.01,0007.50
2022-10-21 17:05:00,,0820.1,5.01,0.00,29.6,28.3,00.0,38.4,31.4,06.7,0002.2,0014.75,0008.13,0007.55
2022-10-21 17:06:00,,0820.1,5.00,0.00,29.6,28.3,00.0,38.5,31.4,06.8,0002.5,0015.95,0008.25,0007.66
2022-10-21 17:07:00,,0820.1,4.99,0.00,29.6,28.3,00.0,38.5,31.4,06.9,0002.8,0016.90,0008.34,0007.72
2022-10-21 17:08:00,,0820.2,5.01,0.00,29.6,28.3,00.0,38.5,31.4,06.8,0002.5,0017.62,0008.51,0007.81
2022-10-21 17:09:00,,0820.2,5.00,0.00,29.6,28.3,00.0,38.5,31.4,06.8,0002.0,0018.15,0008.52,0007.83
2022-10-21 17:10:00,,0820.3,4.99,0.00,29.6,28.3,00.0,38.5,31.4,06.8,0001.9,0018.03,0008.56,0007.86
2022-10-21 17:11:00,,0820.2,4.99,0.00,29.6,28.3,00.0,38.5,31.4,06.7,0002.0,0017.43,0008.62,0007.92
2022-10-21 17:12:00,,0820.2,5.01,0.00,29.6,28.3,00.0,38.5,31.4,06.7,0002.1,0017.29,0008.69,0008.01
2022-10-21 17:13:00,,0820.2,5.00,0.00,29.6,28.3,00.0,38.5,31.5,06.8,0002.2,0017.31,0008.78,0008.11
2022-10-21 17:14:00,,0820.3,4.98,0.00,29.7,28.3,00.0,38.5,31.5,06.8,0002.1,0017.48,0008.79,0008.15
2022-10-21 17:15:00,,0820.4,5.01,0.00,29.7,28.3,00.0,38.6,31.5,06.8,0002.0,0017.64,0008.76,0008.12
2022-10-21 17:16:00,,0820.3,5.01,0.00,29.7,28.4,00.0,38.6,31.5,06.9,0002.2,0015.90,0008.66,0008.10
2022-10-21 17:17:00,,0820.3,4.99,0.00,29.7,28.4,00.0,38.6,31.5,06.9,0002.0,0015.35,0008.61,0008.09
2022-10-21 17:18:00,,0820.3,5.02,0.00,29.7,28.4,00.0,38.6,31.5,07.0,0002.3,0014.23,0008.54,0008.09
2022-10-21 17:19:00,,0820.3,4.99,0.00,29.7,28.4,00.0,38.6,31.5,07.0,0002.6,0013.48,0008.38,0008.03
2022-10-21 17:20:00,,0820.2,5.01,0.00,29.7,28.4,00.0,38.6,31.5,07.0,0002.3,0012.59,0008.29,0007.96
2022-10-21 17:21:00,,0820.2,5.01,0.00,29.7,28.4,00.0,38.6,31.6,06.9,0002.1,0012.45,0008.18,0007.86
2022-10-21 17:22:00,,0820.2,4.99,0.00,29.8,28.5,00.0,38.6,31.6,06.9,0002.5,0012.37,0008.08,0007.76
2022-10-21 17:23:00,,0820.2,5.00,0.00,29.8,28.5,00.0,38.6,31.6,06.9,0000.8,0012.72,0008.04,0007.69
2022-10-21 17:24:00,,0820.1,5.00,0.00,29.8,28.5,00.0,38.7,31.6,06.9,0000.0,0013.17,0007.98,0007.61
2022-10-21 17:25:00,,0820.2,5.00,0.00,29.8,28.5,00.0,38.7,31.6,06.8,0001.0,0012.76,0007.88,0007.52
2022-10-21 17:26:00,,0820.2,5.00,0.00,29.8,28.6,00.0,38.7,31.7,06.9,0003.4,0013.05,0007.76,0007.43
2022-10-21 17:27:00,,0820.2,5.01,0.00,29.8,28.5,00.0,38.7,31.7,06.8,0003.5,0012.81,0007.65,0007.32
2022-10-21 17:28:00,,0820.0,4.99,0.00,29.8,28.6,00.0,38.7,31.7,06.9,0002.3,0011.91,0007.49,0007.18
2022-10-21 17:29:00,,0819.9,5.00,0.00,29.9,28.6,00.0,38.7,31.7,06.8,0003.4,0012.22,0007.42,0007.07
2022-10-21 17:30:00,,0820.0,5.01,0.00,29.9,28.6,00.0,38.8,31.7,06.6,0003.3,0012.51,0007.41,0007.02
2022-10-21 17:31:00,,0820.1,4.98,0.00,29.9,28.6,00.0,38.8,31.7,06.6,0003.7,0012.82,0007.38,0006.98
2022-10-21 17:32:00,,0820.2,5.01,0.00,29.9,28.6,00.0,38.8,31.7,06.7,0004.1,0013.37,0007.30,0006.92
2022-10-21 17:33:00,,0820.1,5.02,0.00,29.9,28.6,00.0,38.8,31.7,06.7,0003.7,0013.33,0007.23,0006.86
2022-10-21 17:34:00,,0820.0,4.98,0.00,29.9,28.6,00.0,38.8,31.8,06.7,0003.4,0012.83,0007.13,0006.78
2022-10-21 17:35:00,,0820.0,5.00,0.00,29.9,28.6,00.0,38.8,31.8,06.7,0003.7,0012.43,0007.06,0006.70
2022-10-21 17:36:00,,0820.0,5.01,0.00,30.0,28.6,00.0,38.8,31.8,06.7,0004.0,0013.05,0007.04,0006.66
2022-10-21 17:37:00,,0820.0,5.00,0.00,30.0,28.7,00.0,38.8,31.8,06.6,0004.2,0013.05,0007.04,0006.63
2022-10-21 17:38:00,,0819.9,4.99,0.00,30.0,28.7,00.0,38.9,31.8,06.6,0003.9,0013.45,0007.02,0006.60
2022-10-21 17:39:00,,0820.0,5.00,0.00,30.0,28.7,00.0,38.9,31.8,06.8,0003.3,0013.78,0006.99,0006.58
2022-10-21 17:40:00,,0820.0,5.01,0.00,30.0,28.7,00.0,38.9,31.8,06.8,0003.3,0013.34,0006.94,0006.57
2022-10-21 17:41:00,,0820.1,5.00,0.00,30.0,28.7,00.0,38.9,31.8,06.7,0003.6,0013.02,0006.84,0006.51
2022-10-21 17:42:00,,0820.2,4.99,0.00,30.0,28.7,00.0,38.9,31.9,06.6,0003.7,0012.46,0006.74,0006.41
2022-10-21 17:43:00,,0820.2,5.01,0.00,30.0,28.7,00.0,38.9,31.9,06.6,0003.4,0011.78,0006.67,0006.33
2022-10-21 17:44:00,,0820.1,5.01,0.00,30.1,28.8,00.0,38.9,31.9,06.6,0003.0,0011.72,0006.65,0006.27
2022-10-21 17:45:00,,0820.1,4.99,0.00,30.1,28.8,00.0,39.0,31.9,06.5,0000.0,0011.67,0006.56,0006.19
2022-10-21 17:46:00,,0820.0,5.01,0.00,30.1,28.5,00.0,38.9,32.0,06.3,0001.4,0011.45,0006.44,0006.08
2022-10-21 17:47:00,,0820.0,5.01,0.00,30.1,27.3,00.0,38.9,31.9,06.3,0000.6,0011.03,0006.35,0005.98
2022-10-21 17:48:00,,0820.1,5.00,0.00,30.1,26.8,00.0,38.8,31.9,06.4,0000.6,0010.81,0006.23,0005.85
2022-10-21 17:49:00,,0820.1,5.00,0.00,30.1,27.0,00.0,38.8,31.8,06.5,0000.1,0010.44,0006.08,0005.72
2022-10-21 17:50:00,,0820.0,5.00,0.00,30.0,27.3,00.0,38.8,31.6,06.4,0001.5,0009.72,0005.96,0005.60
2022-10-21 17:51:00,,0820.0,4.99,0.00,29.9,27.6,00.0,38.8,31.6,06.4,0000.3,0009.66,0005.85,0005.47
2022-10-21 17:52:00,,0820.2,5.00,0.00,29.9,27.8,00.0,38.8,31.6,06.4,0000.0,0009.58,0005.74,0005.36
2022-10-21 17:53:00,,0820.2,5.02,0.00,29.9,27.9,00.0,38.8,31.6,06.5,0000.0,0009.64,0005.68,0005.29
2022-10-21 17:54:00,,0820.0,5.01,0.00,29.9,28.1,00.0,38.8,31.6,06.5,0000.0,0009.63,0005.60,0005.21
2022-10-21 17:55:00,,0820.0,4.98,0.00,29.9,28.2,00.0,38.8,31.6,06.4,0000.0,0009.39,0005.40,0005.04
2022-10-21 17:56:00,,0820.0,5.01,0.00,29.9,28.2,00.0,38.8,31.6,06.5,0000.0,0010.19,0005.28,0004.90
2022-10-21 17:57:00,,0819.9,5.01,0.00,29.9,28.3,00.0,38.8,31.6,06.4,0000.0,0010.15,0005.17,0004.78
2022-10-21 17:58:00,,0819.9,4.99,0.00,29.8,28.3,00.0,38.8,31.6,05.9,0000.0,0009.80,0005.00,0004.64
2022-10-21 17:59:00,,0819.9,5.00,0.00,29.8,28.3,00.0,38.8,31.6,06.0,0000.0,0009.09,0004.85,0004.51
